contact: severine.martini@mio.osupytheas.fr, dominique.lefevre@mio.osupytheas.fr
Project:EMSO Ligure-ouest http://www.emso-fr.org/EMSO-France
Sensor Optode, line 4330 Serial 272 
DOI : "https://doi.org/10.17882/97948" 
Title:EMSO Ligure Ouest : Data BathyDock capteur Optode - deploiement "2023-04-28"
Datetime,Profondeur,Latitude,Longitude,optode_type,serial,O2_concentration,O2_saturation,Temperature,Calibrated_Phase,Temp_Compensated_Phase,phase_blue_light,phase_red_light,Amplitude_blue_light,Amplitude_red_light,thermistor_bridge
time,m,degree_north,degree_east,1,1,umol.l-1,%,degree_C,degree,degree,degree,degree,mV,mV,mV
2023-11-17T00:00:07,2420,42.8014,5.9826,4330,272,186.057,57.002,13.324,36.059,36.639,41.229,4.590,295.7,544.3,290.8
2023-11-17T00:03:08,2420,42.8014,5.9826,4330,272,186.261,57.063,13.323,36.047,36.627,41.217,4.590,295.8,544.2,290.8
2023-11-17T00:06:08,2420,42.8014,5.9826,4330,272,185.971,56.975,13.324,36.066,36.645,41.236,4.590,295.8,544.3,290.8
2023-11-17T00:09:07,2420,42.8014,5.9826,4330,272,186.293,57.073,13.323,36.045,36.625,41.216,4.591,295.7,544.3,290.8
2023-11-17T00:12:07,2420,42.8014,5.9826,4330,272,186.040,56.993,13.321,36.062,36.642,41.236,4.594,295.8,544.3,290.9
2023-11-17T00:15:07,2420,42.8014,5.9826,4330,272,186.139,57.027,13.324,36.054,36.634,41.228,4.594,295.7,544.2,290.8
2023-11-17T00:18:07,2420,42.8014,5.9826,4330,272,186.238,57.053,13.320,36.049,36.629,41.221,4.592,295.8,544.2,290.9
2023-11-17T00:21:07,2420,42.8014,5.9826,4330,272,186.519,57.137,13.319,36.032,36.612,41.210,4.597,295.7,544.3,290.9
2023-11-17T00:24:07,2420,42.8014,5.9826,4330,272,186.264,57.057,13.318,36.048,36.628,41.216,4.588,295.7,544.4,291.0
2023-11-17T00:27:07,2420,42.8014,5.9826,4330,272,185.992,56.978,13.321,36.066,36.645,41.234,4.589,295.8,544.3,290.9
2023-11-17T00:30:07,2420,42.8014,5.9826,4330,272,186.153,57.026,13.320,36.055,36.635,41.225,4.590,295.8,544.4,290.9
2023-11-17T00:33:07,2420,42.8014,5.9826,4330,272,186.002,56.983,13.322,36.064,36.643,41.234,4.591,295.7,544.2,290.8
2023-11-17T00:36:07,2420,42.8014,5.9826,4330,272,185.911,56.954,13.322,36.070,36.650,41.240,4.590,295.7,544.2,290.8
2023-11-17T00:39:08,2420,42.8014,5.9826,4330,272,185.903,56.949,13.319,36.072,36.652,41.239,4.588,295.7,544.3,290.9
2023-11-17T00:42:08,2420,42.8014,5.9826,4330,272,186.133,57.019,13.319,36.057,36.637,41.223,4.587,295.7,544.3,290.9
2023-11-17T00:45:08,2420,42.8014,5.9826,4330,272,185.962,56.968,13.320,36.068,36.647,41.235,4.587,295.8,544.3,290.9
2023-11-17T00:48:08,2420,42.8014,5.9826,4330,272,186.222,57.045,13.318,36.052,36.632,41.220,4.589,295.7,544.3,291.0
2023-11-17T00:51:07,2420,42.8014,5.9826,4330,272,186.203,57.036,13.316,36.054,36.634,41.220,4.586,295.7,544.3,291.0
2023-11-17T00:54:07,2420,42.8014,5.9826,4330,272,185.984,56.975,13.320,36.066,36.646,41.230,4.584,295.7,544.3,290.9
2023-11-17T00:57:07,2420,42.8014,5.9826,4330,272,186.202,57.035,13.315,36.055,36.635,41.227,4.592,295.8,544.3,291.1
2023-11-17T01:00:08,2420,42.8014,5.9826,4330,272,186.359,57.086,13.317,36.043,36.623,41.215,4.592,295.7,544.3,291.0
2023-11-17T01:03:07,2420,42.8014,5.9826,4330,272,186.298,57.068,13.318,36.046,36.626,41.218,4.592,295.7,544.3,291.0
2023-11-17T01:06:07,2420,42.8014,5.9826,4330,272,186.178,57.033,13.319,36.054,36.633,41.222,4.588,295.8,544.3,290.9
2023-11-17T01:09:07,2420,42.8014,5.9826,4330,272,186.199,57.034,13.315,36.054,36.634,41.225,4.591,295.7,544.3,291.1
2023-11-17T01:12:08,2420,42.8014,5.9826,4330,272,186.203,57.036,13.316,36.054,36.634,41.224,4.590,295.7,544.3,291.0
2023-11-17T01:15:08,2420,42.8014,5.9826,4330,272,186.388,57.092,13.315,36.042,36.622,41.215,4.593,295.7,544.4,291.1
2023-11-17T01:18:08,2420,42.8014,5.9826,4330,272,186.291,57.061,13.314,36.049,36.629,41.222,4.593,295.6,544.3,291.1
2023-11-17T01:21:07,2420,42.8014,5.9826,4330,272,186.341,57.077,13.314,36.045,36.625,41.219,4.594,295.7,544.4,291.1
2023-11-17T01:24:07,2420,42.8014,5.9826,4330,272,186.228,57.044,13.316,36.052,36.632,41.224,4.592,295.7,544.3,291.0
2023-11-17T01:27:07,2420,42.8014,5.9826,4330,272,186.175,57.026,13.314,36.057,36.636,41.227,4.591,295.7,544.3,291.1
2023-11-17T01:30:08,2420,42.8014,5.9826,4330,272,186.146,57.034,13.328,36.051,36.631,41.219,4.588,295.7,544.3,290.6
2023-11-17T01:33:07,2420,42.8014,5.9826,4330,272,186.135,57.025,13.323,36.055,36.635,41.221,4.586,295.7,544.3,290.8
2023-11-17T01:36:08,2420,42.8014,5.9826,4330,272,186.269,57.064,13.322,36.047,36.627,41.215,4.588,295.7,544.2,290.8
2023-11-17T01:39:08,2420,42.8014,5.9826,4330,272,186.217,57.043,13.318,36.052,36.632,41.225,4.592,295.7,544.3,291.0
2023-11-17T01:42:08,2420,42.8014,5.9826,4330,272,186.255,57.051,13.315,36.051,36.631,41.221,4.590,295.6,544.3,291.1
2023-11-17T01:45:08,2420,42.8014,5.9826,4330,272,186.465,57.128,13.325,36.032,36.612,41.205,4.593,295.7,544.3,290.7
2023-11-17T01:48:08,2420,42.8014,5.9826,4330,272,186.211,57.056,13.329,36.047,36.627,41.219,4.592,295.6,544.3,290.6
2023-11-17T01:51:07,2420,42.8014,5.9826,4330,272,186.025,56.996,13.327,36.060,36.640,41.229,4.590,295.7,544.3,290.7
2023-11-17T01:54:07,2420,42.8014,5.9826,4330,272,186.460,57.122,13.321,36.034,36.614,41.209,4.594,295.7,544.2,290.9
2023-11-17T01:57:07,2420,42.8014,5.9826,4330,272,186.003,56.987,13.325,36.063,36.642,41.233,4.591,295.7,544.2,290.7
2023-11-17T02:00:07,2420,42.8014,5.9826,4330,272,186.138,57.021,13.319,36.057,36.636,41.224,4.587,295.8,544.2,290.9
2023-11-17T02:03:07,2420,42.8014,5.9826,4330,272,186.263,57.075,13.332,36.042,36.622,41.214,4.592,295.7,544.3,290.5
2023-11-17T02:06:07,2420,42.8014,5.9826,4330,272,186.212,57.063,13.335,36.044,36.624,41.214,4.590,295.7,544.3,290.4
2023-11-17T02:09:08,2420,42.8014,5.9826,4330,272,186.123,57.028,13.328,36.053,36.633,41.227,4.594,295.8,544.2,290.6
2023-11-17T02:12:08,2420,42.8014,5.9826,4330,272,185.934,56.973,13.331,36.064,36.644,41.231,4.588,295.7,544.3,290.5
2023-11-17T02:15:08,2420,42.8014,5.9826,4330,272,185.984,56.976,13.322,36.065,36.645,41.237,4.593,295.7,544.3,290.8
2023-11-17T02:18:08,2420,42.8014,5.9826,4330,272,186.330,57.077,13.317,36.045,36.625,41.220,4.595,295.7,544.3,291.0
2023-11-17T02:21:07,2420,42.8014,5.9826,4330,272,186.183,57.033,13.318,36.054,36.634,41.229,4.595,295.8,544.2,291.0
2023-11-17T02:24:07,2420,42.8014,5.9826,4330,272,186.412,57.096,13.313,36.042,36.622,41.218,4.596,295.7,544.3,291.1
2023-11-17T02:27:07,2420,42.8014,5.9826,4330,272,186.333,57.076,13.316,36.045,36.625,41.217,4.592,295.6,544.3,291.0
2023-11-17T02:30:08,2420,42.8014,5.9826,4330,272,186.156,57.022,13.316,36.056,36.636,41.220,4.584,295.7,544.4,291.0
2023-11-17T02:33:07,2420,42.8014,5.9826,4330,272,186.211,57.037,13.315,36.054,36.634,41.223,4.589,295.7,544.4,291.1
2023-11-17T02:36:07,2420,42.8014,5.9826,4330,272,186.274,57.059,13.317,36.049,36.629,41.218,4.589,295.7,544.3,291.0
2023-11-17T02:39:07,2420,42.8014,5.9826,4330,272,186.514,57.132,13.316,36.033,36.613,41.208,4.595,295.7,544.3,291.0
2023-11-17T02:42:07,2420,42.8014,5.9826,4330,272,186.479,57.121,13.316,36.035,36.615,41.204,4.589,295.7,544.2,291.0
2023-11-17T02:45:07,2420,42.8014,5.9826,4330,272,186.366,57.089,13.318,36.042,36.622,41.210,4.588,295.7,544.2,291.0
2023-11-17T02:48:07,2420,42.8014,5.9826,4330,272,186.255,57.056,13.319,36.049,36.629,41.215,4.586,295.6,544.4,290.9
2023-11-17T02:51:08,2420,42.8014,5.9826,4330,272,186.032,56.999,13.328,36.059,36.639,41.223,4.584,295.6,544.3,290.7
2023-11-17T02:54:08,2420,42.8014,5.9826,4330,272,185.984,56.975,13.321,36.066,36.645,41.238,4.593,295.7,544.2,290.9
2023-11-17T02:57:08,2420,42.8014,5.9826,4330,272,186.075,57.008,13.325,36.058,36.638,41.223,4.585,295.7,544.2,290.7
2023-11-17T03:00:08,2420,42.8014,5.9826,4330,272,186.226,57.056,13.326,36.048,36.628,41.220,4.593,295.7,544.3,290.7
2023-11-17T03:03:07,2420,42.8014,5.9826,4330,272,186.216,57.065,13.335,36.043,36.623,41.215,4.592,295.7,544.2,290.4
2023-11-17T03:06:07,2420,42.8014,5.9826,4330,272,186.079,57.012,13.326,36.057,36.637,41.225,4.588,295.7,544.2,290.7
2023-11-17T03:09:07,2420,42.8014,5.9826,4330,272,186.075,57.002,13.320,36.060,36.640,41.229,4.590,295.7,544.3,290.9
2023-11-17T03:12:07,2420,42.8014,5.9826,4330,272,186.228,57.056,13.326,36.047,36.627,41.218,4.591,295.7,544.2,290.7
2023-11-17T03:15:08,2420,42.8014,5.9826,4330,272,186.101,57.013,13.322,36.058,36.638,41.229,4.592,295.7,544.2,290.8
2023-11-17T03:18:08,2420,42.8014,5.9826,4330,272,186.153,57.029,13.323,36.053,36.633,41.226,4.593,295.7,544.2,290.8
2023-11-17T03:21:08,2420,42.8014,5.9826,4330,272,186.280,57.078,13.330,36.042,36.622,41.216,4.594,295.7,544.2,290.6
2023-11-17T03:24:07,2420,42.8014,5.9826,4330,272,186.125,57.038,13.336,36.049,36.629,41.219,4.590,295.6,544.3,290.4
2023-11-17T03:27:07,2420,42.8014,5.9826,4330,272,186.426,57.127,13.334,36.030,36.611,41.197,4.587,295.6,544.2,290.4
2023-11-17T03:30:07,2420,42.8014,5.9826,4330,272,186.071,57.003,13.322,36.059,36.639,41.228,4.589,295.7,544.2,290.8
2023-11-17T03:33:08,2420,42.8014,5.9826,4330,272,186.225,57.044,13.317,36.052,36.632,41.221,4.589,295.7,544.3,291.0
2023-11-17T03:36:07,2420,42.8014,5.9826,4330,272,186.193,57.039,13.320,36.052,36.632,41.224,4.591,295.6,544.3,290.9
2023-11-17T03:39:07,2420,42.8014,5.9826,4330,272,186.206,57.042,13.319,36.052,36.632,41.219,4.587,295.7,544.3,290.9
2023-11-17T03:42:07,2420,42.8014,5.9826,4330,272,186.324,57.085,13.325,36.041,36.621,41.207,4.586,295.7,544.2,290.7
2023-11-17T03:45:07,2420,42.8014,5.9826,4330,272,186.381,57.096,13.320,36.040,36.620,41.210,4.590,295.7,544.3,290.9
2023-11-17T03:48:08,2420,42.8014,5.9826,4330,272,186.263,57.066,13.325,36.046,36.626,41.215,4.589,295.7,544.2,290.7
2023-11-17T03:51:08,2420,42.8014,5.9826,4330,272,186.210,57.058,13.331,36.046,36.626,41.214,4.588,295.7,544.2,290.5
2023-11-17T03:54:08,2420,42.8014,5.9826,4330,272,186.218,57.071,13.340,36.041,36.621,41.212,4.591,295.8,544.2,290.2
2023-11-17T03:57:07,2420,42.8014,5.9826,4330,272,186.296,57.084,13.331,36.041,36.621,41.209,4.588,295.7,544.2,290.5
2023-11-17T04:00:07,2420,42.8014,5.9826,4330,272,186.003,56.985,13.324,36.063,36.643,41.231,4.588,295.8,544.2,290.8
2023-11-17T04:03:07,2420,42.8014,5.9826,4330,272,186.196,57.045,13.325,36.050,36.630,41.221,4.591,295.7,544.3,290.8
2023-11-17T04:06:07,2420,42.8014,5.9826,4330,272,186.322,57.075,13.317,36.045,36.625,41.216,4.590,295.8,544.2,291.0
2023-11-17T04:09:07,2420,42.8014,5.9826,4330,272,185.974,56.971,13.319,36.067,36.647,41.235,4.588,295.7,544.3,290.9
2023-11-17T04:12:07,2420,42.8014,5.9826,4330,272,186.431,57.109,13.318,36.038,36.618,41.208,4.590,295.7,544.2,291.0
2023-11-17T04:15:07,2420,42.8014,5.9826,4330,272,186.321,57.073,13.316,36.046,36.626,41.221,4.595,295.6,544.3,291.0
2023-11-17T04:18:07,2420,42.8014,5.9826,4330,272,186.046,56.997,13.323,36.061,36.640,41.228,4.587,295.7,544.3,290.8
2023-11-17T04:21:07,2420,42.8014,5.9826,4330,272,186.171,57.027,13.316,36.055,36.635,41.221,4.586,295.7,544.3,291.0
2023-11-17T04:24:08,2420,42.8014,5.9826,4330,272,186.182,57.033,13.318,36.054,36.634,41.220,4.587,295.7,544.2,291.0
2023-11-17T04:27:08,2420,42.8014,5.9826,4330,272,186.257,57.060,13.322,36.047,36.627,41.220,4.593,295.6,544.3,290.8
2023-11-17T04:30:08,2420,42.8014,5.9826,4330,272,186.387,57.103,13.324,36.038,36.618,41.209,4.591,295.6,544.3,290.8
2023-11-17T04:33:07,2420,42.8014,5.9826,4330,272,186.082,57.004,13.320,36.059,36.639,41.233,4.594,295.7,544.3,290.9
2023-11-17T04:36:07,2420,42.8014,5.9826,4330,272,186.020,56.982,13.318,36.065,36.645,41.235,4.590,295.7,544.3,291.0
2023-11-17T04:39:07,2420,42.8014,5.9826,4330,272,186.213,57.043,13.319,36.052,36.632,41.222,4.590,295.7,544.3,290.9
2023-11-17T04:42:07,2420,42.8014,5.9826,4330,272,186.255,57.058,13.321,36.048,36.628,41.216,4.588,295.7,544.3,290.9
2023-11-17T04:45:08,2420,42.8014,5.9826,4330,272,186.490,57.132,13.322,36.032,36.612,41.205,4.593,295.7,544.3,290.8
2023-11-17T04:48:08,2420,42.8014,5.9826,4330,272,186.155,57.029,13.322,36.054,36.634,41.227,4.594,295.6,544.3,290.8
2023-11-17T04:51:08,2420,42.8014,5.9826,4330,272,186.236,57.053,13.321,36.049,36.629,41.217,4.588,295.7,544.3,290.9
2023-11-17T04:54:08,2420,42.8014,5.9826,4330,272,186.166,57.032,13.321,36.053,36.633,41.219,4.586,295.7,544.3,290.9
2023-11-17T04:57:08,2420,42.8014,5.9826,4330,272,186.161,57.029,13.320,36.055,36.635,41.224,4.589,295.6,544.3,290.9
2023-11-17T05:00:07,2420,42.8014,5.9826,4330,272,186.263,57.059,13.319,36.048,36.628,41.221,4.593,295.7,544.3,290.9
2023-11-17T05:03:07,2420,42.8014,5.9826,4330,272,185.934,56.959,13.320,36.069,36.649,41.235,4.586,295.7,544.3,290.9
2023-11-17T05:06:07,2420,42.8014,5.9826,4330,272,186.311,57.071,13.317,36.046,36.626,41.217,4.591,295.7,544.3,291.0
2023-11-17T05:09:07,2420,42.8014,5.9826,4330,272,186.359,57.091,13.321,36.041,36.621,41.216,4.594,295.6,544.3,290.9
2023-11-17T05:12:08,2420,42.8014,5.9826,4330,272,186.301,57.070,13.319,36.046,36.626,41.219,4.593,295.8,544.3,290.9
2023-11-17T05:15:08,2420,42.8014,5.9826,4330,272,186.400,57.096,13.315,36.041,36.621,41.208,4.587,295.6,544.3,291.1
2023-11-17T05:18:08,2420,42.8014,5.9826,4330,272,186.243,57.055,13.321,36.049,36.629,41.215,4.586,295.7,544.3,290.9
2023-11-17T05:21:08,2420,42.8014,5.9826,4330,272,186.507,57.131,13.317,36.033,36.614,41.205,4.592,295.7,544.3,291.0
2023-11-17T05:24:07,2420,42.8014,5.9826,4330,272,186.382,57.094,13.318,36.041,36.621,41.209,4.588,295.7,544.4,290.9
2023-11-17T05:27:07,2420,42.8014,5.9826,4330,272,186.310,57.073,13.319,36.045,36.625,41.216,4.591,295.6,544.3,290.9
2023-11-17T05:30:07,2420,42.8014,5.9826,4330,272,186.408,57.100,13.316,36.040,36.620,41.212,4.592,295.7,544.3,291.0
2023-11-17T05:33:08,2420,42.8014,5.9826,4330,272,186.108,57.018,13.324,36.056,36.636,41.220,4.584,295.8,544.3,290.8
2023-11-17T05:36:08,2420,42.8014,5.9826,4330,272,186.091,57.008,13.321,36.058,36.638,41.228,4.590,295.7,544.3,290.9
2023-11-17T05:39:07,2420,42.8014,5.9826,4330,272,186.240,57.051,13.319,36.050,36.630,41.222,4.592,295.7,544.3,290.9
2023-11-17T05:42:07,2420,42.8014,5.9826,4330,272,186.533,57.142,13.319,36.030,36.610,41.206,4.596,295.7,544.3,290.9
2023-11-17T05:45:07,2420,42.8014,5.9826,4330,272,186.295,57.063,13.315,36.048,36.628,41.222,4.594,295.7,544.2,291.1
2023-11-17T05:48:07,2420,42.8014,5.9826,4330,272,186.188,57.039,13.321,36.052,36.632,41.229,4.596,295.7,544.3,290.9
2023-11-17T05:51:07,2420,42.8014,5.9826,4330,272,186.288,57.068,13.320,36.046,36.626,41.216,4.590,295.6,544.2,290.9
2023-11-17T05:54:08,2420,42.8014,5.9826,4330,272,186.374,57.090,13.317,36.042,36.622,41.211,4.589,295.6,544.3,291.0
2023-11-17T05:57:08,2420,42.8014,5.9826,4330,272,186.056,56.999,13.322,36.060,36.640,41.227,4.587,295.6,544.3,290.8
2023-11-17T06:00:08,2420,42.8014,5.9826,4330,272,186.275,57.067,13.322,36.045,36.625,41.216,4.590,295.7,544.3,290.8
2023-11-17T06:03:07,2420,42.8014,5.9826,4330,272,186.160,57.028,13.320,36.055,36.635,41.223,4.589,295.7,544.2,290.9
2023-11-17T06:06:07,2420,42.8014,5.9826,4330,272,186.069,57.001,13.320,36.060,36.640,41.229,4.589,295.7,544.3,290.9
2023-11-17T06:09:07,2420,42.8014,5.9826,4330,272,186.414,57.107,13.320,36.038,36.618,41.206,4.589,295.7,544.3,290.9
2023-11-17T06:12:07,2420,42.8014,5.9826,4330,272,186.321,57.080,13.322,36.043,36.623,41.209,4.586,295.7,544.3,290.8
2023-11-17T06:15:07,2420,42.8014,5.9826,4330,272,186.223,57.051,13.323,36.049,36.629,41.216,4.587,295.7,544.2,290.8
2023-11-17T06:18:07,2420,42.8014,5.9826,4330,272,186.285,57.068,13.321,36.046,36.626,41.216,4.590,295.7,544.3,290.9
2023-11-17T06:21:08,2420,42.8014,5.9826,4330,272,186.347,57.081,13.316,36.044,36.624,41.209,4.585,295.6,544.2,291.0
2023-11-17T06:24:08,2420,42.8014,5.9826,4330,272,186.270,57.058,13.317,36.049,36.629,41.218,4.589,295.7,544.3,291.0
2023-11-17T06:27:07,2420,42.8014,5.9826,4330,272,186.303,57.073,13.320,36.045,36.625,41.217,4.592,295.7,544.3,290.9
2023-11-17T06:30:07,2420,42.8014,5.9826,4330,272,186.035,56.997,13.326,36.060,36.640,41.228,4.588,295.6,544.2,290.7
2023-11-17T06:33:08,2420,42.8014,5.9826,4330,272,186.299,57.065,13.315,36.048,36.628,41.217,4.589,295.7,544.3,291.0
2023-11-17T06:36:07,2420,42.8014,5.9826,4330,272,186.270,57.057,13.316,36.049,36.629,41.219,4.590,295.7,544.2,291.0
2023-11-17T06:39:07,2420,42.8014,5.9826,4330,272,186.418,57.104,13.317,36.039,36.619,41.209,4.590,295.7,544.3,291.0
2023-11-17T06:42:07,2420,42.8014,5.9826,4330,272,186.281,57.062,13.317,36.048,36.628,41.223,4.595,295.7,544.3,291.0
2023-11-17T06:45:07,2420,42.8014,5.9826,4330,272,186.039,56.987,13.316,36.065,36.644,41.230,4.585,295.7,544.3,291.0
2023-11-17T06:48:07,2420,42.8014,5.9826,4330,272,186.293,57.072,13.322,36.045,36.625,41.214,4.589,295.6,544.3,290.8
2023-11-17T06:51:08,2420,42.8014,5.9826,4330,272,186.120,57.017,13.321,36.057,36.637,41.226,4.590,295.6,544.2,290.9
2023-11-17T06:54:08,2420,42.8014,5.9826,4330,272,186.084,57.006,13.321,36.059,36.639,41.223,4.584,295.7,544.3,290.9
2023-11-17T06:57:08,2420,42.8014,5.9826,4330,272,186.301,57.070,13.319,36.046,36.626,41.214,4.587,295.7,544.2,290.9
2023-11-17T07:00:08,2420,42.8014,5.9826,4330,272,186.223,57.045,13.318,36.051,36.631,41.219,4.588,295.7,544.3,291.0
2023-11-17T07:03:07,2420,42.8014,5.9826,4330,272,186.255,57.059,13.321,36.048,36.628,41.215,4.588,295.7,544.4,290.9
2023-11-17T07:06:07,2420,42.8014,5.9826,4330,272,186.463,57.124,13.322,36.034,36.614,41.208,4.594,295.6,544.3,290.8
2023-11-17T07:09:07,2420,42.8014,5.9826,4330,272,186.223,57.050,13.322,36.050,36.630,41.219,4.589,295.7,544.3,290.8
2023-11-17T07:12:07,2420,42.8014,5.9826,4330,272,186.458,57.120,13.320,36.035,36.615,41.206,4.591,295.6,544.2,290.9
2023-11-17T07:15:08,2420,42.8014,5.9826,4330,272,186.335,57.092,13.328,36.039,36.619,41.207,4.588,295.6,544.3,290.6
2023-11-17T07:18:08,2420,42.8014,5.9826,4330,272,186.385,57.103,13.324,36.038,36.618,41.207,4.590,295.6,544.3,290.8
2023-11-17T07:21:08,2420,42.8014,5.9826,4330,272,186.393,57.103,13.323,36.038,36.618,41.207,4.589,295.7,544.2,290.8
2023-11-17T07:24:08,2420,42.8014,5.9826,4330,272,186.060,57.000,13.321,36.060,36.640,41.224,4.583,295.7,544.2,290.9
2023-11-17T07:27:07,2420,42.8014,5.9826,4330,272,186.668,57.186,13.322,36.021,36.601,41.194,4.593,295.7,544.3,290.8
2023-11-17T07:30:07,2420,42.8014,5.9826,4330,272,186.286,57.079,13.330,36.041,36.621,41.213,4.592,295.6,544.2,290.6
2023-11-17T07:33:08,2420,42.8014,5.9826,4330,272,186.261,57.066,13.325,36.045,36.625,41.218,4.593,295.7,544.2,290.7
2023-11-17T07:36:07,2420,42.8014,5.9826,4330,272,186.162,57.035,13.325,36.052,36.632,41.225,4.593,295.7,544.3,290.7
2023-11-17T07:39:07,2420,42.8014,5.9826,4330,272,186.217,57.055,13.327,36.048,36.628,41.213,4.585,295.7,544.2,290.7
2023-11-17T07:42:07,2420,42.8014,5.9826,4330,272,186.243,57.063,13.328,36.045,36.625,41.217,4.592,295.7,544.2,290.6
2023-11-17T07:45:07,2420,42.8014,5.9826,4330,272,186.123,57.029,13.329,36.053,36.633,41.224,4.591,295.6,544.2,290.6
2023-11-17T07:48:07,2420,42.8014,5.9826,4330,272,186.148,57.032,13.326,36.053,36.632,41.222,4.590,295.7,544.2,290.7
2023-11-17T07:51:07,2420,42.8014,5.9826,4330,272,186.279,57.073,13.327,36.044,36.624,41.215,4.591,295.8,544.2,290.7
2023-11-17T07:54:07,2420,42.8014,5.9826,4330,272,186.252,57.058,13.322,36.048,36.628,41.219,4.591,295.7,544.3,290.8
2023-11-17T07:57:07,2420,42.8014,5.9826,4330,272,186.131,57.020,13.321,36.056,36.636,41.224,4.588,295.7,544.4,290.9
2023-11-17T08:00:08,2420,42.8014,5.9826,4330,272,186.128,57.024,13.324,36.054,36.634,41.222,4.588,295.6,544.4,290.8
2023-11-17T08:03:07,2420,42.8014,5.9826,4330,272,186.256,57.052,13.315,36.051,36.631,41.218,4.587,295.7,544.4,291.0
2023-11-17T08:06:07,2420,42.8014,5.9826,4330,272,186.147,57.020,13.316,36.057,36.637,41.228,4.591,295.7,544.3,291.0
2023-11-17T08:09:07,2420,42.8014,5.9826,4330,272,186.219,57.044,13.318,36.051,36.631,41.218,4.587,295.6,544.3,291.0
2023-11-17T08:12:07,2420,42.8014,5.9826,4330,272,186.247,57.055,13.320,36.049,36.629,41.217,4.588,295.7,544.3,290.9
2023-11-17T08:15:07,2420,42.8014,5.9826,4330,272,186.307,57.075,13.321,36.044,36.624,41.220,4.596,295.6,544.3,290.9
2023-11-17T08:18:07,2420,42.8014,5.9826,4330,272,186.306,57.071,13.318,36.046,36.626,41.217,4.591,295.7,544.3,291.0
2023-11-17T08:21:07,2420,42.8014,5.9826,4330,272,186.380,57.096,13.320,36.040,36.620,41.215,4.595,295.7,544.3,290.9
2023-11-17T08:24:07,2420,42.8014,5.9826,4330,272,186.129,57.025,13.325,36.054,36.634,41.224,4.590,295.6,544.3,290.7
2023-11-17T08:27:08,2420,42.8014,5.9826,4330,272,186.518,57.142,13.323,36.030,36.610,41.197,4.587,295.6,544.3,290.8
2023-11-17T08:30:08,2420,42.8014,5.9826,4330,272,186.227,57.052,13.322,36.049,36.629,41.220,4.591,295.7,544.4,290.8
2023-11-17T08:33:07,2420,42.8014,5.9826,4330,272,185.950,56.968,13.323,36.067,36.646,41.232,4.586,295.6,544.2,290.8
2023-11-17T08:36:07,2420,42.8014,5.9826,4330,272,186.160,57.036,13.326,36.051,36.631,41.225,4.594,295.7,544.3,290.7
2023-11-17T08:39:07,2420,42.8014,5.9826,4330,272,186.183,57.038,13.322,36.052,36.632,41.224,4.592,295.7,544.3,290.8
2023-11-17T08:42:07,2420,42.8014,5.9826,4330,272,185.844,56.933,13.321,36.075,36.654,41.245,4.591,295.7,544.3,290.9
2023-11-17T08:45:07,2420,42.8014,5.9826,4330,272,186.027,56.988,13.320,36.063,36.643,41.234,4.590,295.7,544.2,290.9
2023-11-17T08:48:08,2420,42.8014,5.9826,4330,272,186.076,57.001,13.319,36.060,36.640,41.229,4.588,295.8,544.3,290.9
2023-11-17T08:51:08,2420,42.8014,5.9826,4330,272,186.275,57.064,13.320,36.047,36.627,41.216,4.588,295.7,544.3,290.9
2023-11-17T08:54:08,2420,42.8014,5.9826,4330,272,186.005,56.983,13.322,36.064,36.644,41.233,4.590,295.8,544.3,290.8
2023-11-17T08:57:07,2420,42.8014,5.9826,4330,272,186.026,56.985,13.318,36.064,36.644,41.238,4.594,295.8,544.3,291.0
2023-11-17T09:00:07,2420,42.8014,5.9826,4330,272,186.090,57.006,13.319,36.059,36.639,41.231,4.592,295.7,544.3,290.9
2023-11-17T09:03:07,2420,42.8014,5.9826,4330,272,186.050,57.000,13.324,36.060,36.640,41.225,4.585,295.7,544.3,290.8
2023-11-17T09:06:07,2420,42.8014,5.9826,4330,272,186.139,57.027,13.324,36.054,36.634,41.226,4.592,295.7,544.3,290.8
2023-11-17T09:09:07,2420,42.8014,5.9826,4330,272,186.221,57.051,13.323,36.049,36.629,41.222,4.593,295.7,544.2,290.8
2023-11-17T09:12:08,2420,42.8014,5.9826,4330,272,186.182,57.041,13.325,36.051,36.630,41.226,4.596,295.8,544.2,290.7
2023-11-17T09:15:08,2420,42.8014,5.9826,4330,272,186.158,57.036,13.326,36.052,36.632,41.222,4.590,295.7,544.3,290.7
2023-11-17T09:18:08,2420,42.8014,5.9826,4330,272,186.100,57.014,13.323,36.057,36.637,41.232,4.595,295.7,544.3,290.8
2023-11-17T09:21:08,2420,42.8014,5.9826,4330,272,186.261,57.071,13.329,36.044,36.624,41.219,4.595,295.8,544.2,290.6
2023-11-17T09:24:08,2420,42.8014,5.9826,4330,272,185.818,56.928,13.324,36.075,36.655,41.238,4.584,295.7,544.1,290.8
2023-11-17T09:27:07,2420,42.8014,5.9826,4330,272,186.127,57.027,13.327,36.053,36.633,41.218,4.585,295.7,544.3,290.7
2023-11-17T09:30:07,2420,42.8014,5.9826,4330,272,186.025,57.009,13.338,36.055,36.635,41.223,4.588,295.8,544.3,290.3
2023-11-17T09:33:08,2420,42.8014,5.9826,4330,272,186.264,57.070,13.328,36.044,36.624,41.215,4.591,295.7,544.2,290.7
2023-11-17T09:36:07,2420,42.8014,5.9826,4330,272,186.264,57.083,13.338,36.039,36.620,41.209,4.590,295.7,544.3,290.3
2023-11-17T09:39:07,2420,42.8014,5.9826,4330,272,186.139,57.029,13.326,36.053,36.633,41.225,4.592,295.6,544.2,290.7
2023-11-17T09:42:07,2420,42.8014,5.9826,4330,272,186.347,57.102,13.333,36.036,36.616,41.206,4.590,295.7,544.3,290.5
2023-11-17T09:45:07,2420,42.8014,5.9826,4330,272,186.113,57.030,13.333,36.051,36.631,41.223,4.592,295.7,544.2,290.5
2023-11-17T09:48:08,2420,42.8014,5.9826,4330,272,186.271,57.066,13.323,36.046,36.626,41.216,4.590,295.7,544.3,290.8
2023-11-17T09:51:08,2420,42.8014,5.9826,4330,272,186.249,57.069,13.331,36.044,36.624,41.215,4.592,295.7,544.2,290.5
2023-11-17T09:54:08,2420,42.8014,5.9826,4330,272,186.384,57.106,13.327,36.037,36.617,41.206,4.590,295.7,544.3,290.7
2023-11-17T09:57:07,2420,42.8014,5.9826,4330,272,186.219,57.051,13.323,36.049,36.629,41.223,4.594,295.6,544.3,290.8
2023-11-17T10:00:07,2420,42.8014,5.9826,4330,272,186.287,57.078,13.328,36.042,36.622,41.212,4.590,295.7,544.2,290.6